Showing default

LANDSAT 1 (ERTS 1), 6126

Orbit data source: Space-Track

LANDSAT 1 (ERTS 1), 6126 is a payload satellite owned by GSFC (US) in SSO that was launched on Sun, 23 Jul 1972 UTC via a DELTA 0900 launch vehicle from the Air Force Western Test Range (AFWTR). Payload-class satellites include a variety of spacecraft equipped with specific instruments for various scientific and technological missions. These include communications satellites like Starlink; space stations such as the ISS; scientific satellites like the Hubble; Earth observation satellites from companies like Planet Labs, Umbra, and HawkEye 360; GPS; miniature CubeSats for education and research; and military/defense satellites.

Loading next visibility...
Identifier
6126, 1972-058A
Orbit
SSO
Country
Flag of USUS
Related business
Manufacturer
GE/MSVD
Mission
Non-operational spacecraft
Bus & Motor
NIMBUS, Unknown motor
Mass
891 kg wet, 891 kg dry
Launch date (UTC)
1972-07-23 (54 years ago)
Launch vehicle
DELTA 0900
Launch site
Air Force Western Test Range (AFWTR)
Object type
Payload
Rocket body
Debris
Shape & HBR
Unknown
Radar Cross Section
Large (>1 m²)

Expand to show TLE details & history
Last TLE update: 8 hours ago

TLE from 8 hours ago
0 LANDSAT 1 (ERTS 1)
1  6126U 72058A   26062.09691367 -.00000156  00000-0 -77169-4 0  9992
2  6126  99.3496  90.0036 0007934 179.0712 181.0466 13.97829760733130
Epoch: 2026-03-03T02:19Z
TLE epoch observation values (Epoch: 2026-03-03T02:19:33.341Z)
Latitude
-0.00002°
Longitude
-105.76619°
Altitude
909.959 km
Speed
7.394 km/s
True Right ascension
06h 00m 00s
True Declination
0° 00' 00"
Sunlit
Object was in daylight at epoch
Visualization orbit readout
Latitude
Unknown
Longitude
Unknown
Altitude
Unknown
Speed
Unknown
Apparent Right ascension
Unknown
Apparent Declination
Unknown
Sunlit
N/A
Visualization observer readout
Local Sidereal Time
13:36:42
Azimuth
Unknown
Elevation
Unknown
Doppler factor
Unknown
Orbital elements
Apogee altitude
904.313 km
Perigee altitude
892.766 km
Semi-major axis
7,276.677 km
Eccentricity
0.00079
Inclination
99.3496°
RAAN
90.0036°
Arg. of periapsis
179.0712°
True anomaly
181.04494°
Mean anomaly
181.0466°
Eccentric anomaly
181.04577°
Mean motion
3.49658 °/min
Orbital period
102.96 mins
BSTAR
-0.000077169
Loading maneuver chart data...
Computing Atmospheric mass density...
Loading historical data...
Loading historical data...
Loading historical data...
Loading historical data...
Loading historical data...
Loading historical data...
Loading historical data...

Documentation

Showing up to 5 results
|